When you browse on this site, cookies collect data to enhance your experience and personalize the content and advertising you see.
Visit our Privacy Policy to learn more. By continuing to use the site, you agree to this use of cookies and data.
  • In France
  • List of Countries
  • For 7 days
  • Water Temperature
  • Satellite Maps
  • Weather Map
  • Weather Widgets
  • user-avatar
    Login

    Hourly Weather Batina

    Today, 19 January, Saturday

    Time Temperature Precipitation Wind Pressure Humidity
    00:00 +3°C° 0 mm 1 mps 667 mmHg 79%
    01:00 +3°C° 0 mm 1 mps 667 mmHg 80%
    02:00 +3°C° 0 mm 1 mps 667 mmHg 80%
    03:00 +3°C° 0 mm 1 mps 667 mmHg 81%
    04:00 +3°C° 0 mm 1 mps 667 mmHg 82%
    05:00 +3°C° 0 mm 1 mps 667 mmHg 83%
    06:00 +2°C° 0 mm 2 mps 667 mmHg 83%
    07:00 +3°C° 0 mm 2 mps 667 mmHg 78%
    08:00 +5°C° 0 mm 2 mps 668 mmHg 73%
    09:00 +6°C° 0 mm 2 mps 668 mmHg 67%
    10:00 +7°C° 0.1 mm 2 mps 668 mmHg 64%
    11:00 +7°C° 0.1 mm 2 mps 668 mmHg 60%
    12:00 +8°C° 0.1 mm 3 mps 668 mmHg 57%
    13:00 +8°C° 0.2 mm 3 mps 668 mmHg 58%
    14:00 +8°C° 0.2 mm 3 mps 667 mmHg 59%
    15:00 +8°C° 0.2 mm 3 mps 667 mmHg 60%
    16:00 +7°C° 0.1 mm 2 mps 667 mmHg 65%
    17:00 +6°C° 0.1 mm 2 mps 667 mmHg 70%
    18:00 +6°C° 0.1 mm 1 mps 667 mmHg 75%
    19:00 +6°C° 0 mm 1 mps 667 mmHg 79%
    20:00 +5°C° 0 mm 1 mps 667 mmHg 82%
    21:00 +4°C° 0 mm 0 mps 667 mmHg 85%
    22:00 +4°C° 0 mm 0 mps 667 mmHg 87%
    23:00 +3°C° 0 mm 0 mps 667 mmHg 89%

    Tomorrow, 20 January, Sunday

    Time Temperature Precipitation Wind Pressure Humidity
    00:00 +3°C° 0 mm 0 mps 667 mmHg 90%
    01:00 +3°C° 0 mm 0 mps 667 mmHg 92%
    02:00 +2°C° 0 mm 0 mps 666 mmHg 93%
    03:00 +2°C° 0 mm 0 mps 666 mmHg 94%
    04:00 +2°C° 0 mm 1 mps 666 mmHg 93%
    05:00 +2°C° 0 mm 1 mps 666 mmHg 92%
    06:00 +2°C° 0 mm 1 mps 665 mmHg 91%
    07:00 +3°C° 0 mm 2 mps 666 mmHg 80%
    08:00 +4°C° 0 mm 2 mps 666 mmHg 70%
    09:00 +5°C° 0 mm 3 mps 667 mmHg 60%
    10:00 +7°C° 0 mm 3 mps 667 mmHg 56%
    11:00 +6°C° 0 mm 4 mps 666 mmHg 52%
    12:00 +7°C° 0 mm 5 mps 666 mmHg 48%
    13:00 +7°C° 0.1 mm 5 mps 666 mmHg 55%
    14:00 +6°C° 0.1 mm 5 mps 665 mmHg 63%
    15:00 +6°C° 0.1 mm 4 mps 665 mmHg 71%
    16:00 +5°C° 0.4 mm 4 mps 665 mmHg 76%
    17:00 +5°C° 0.4 mm 4 mps 665 mmHg 80%
    18:00 +4°C° 0.4 mm 4 mps 665 mmHg 84%
    19:00 +4°C° 0.1 mm 4 mps 665 mmHg 86%
    20:00 +4°C° 0.1 mm 4 mps 665 mmHg 88%
    21:00 +4°C° 0.1 mm 4 mps 665 mmHg 90%
    22:00 +4°C° 0 mm 4 mps 664 mmHg 91%
    23:00 +4°C° 0 mm 3 mps 664 mmHg 92%

    Day after tomorrow, 21 January, Monday

    Time Temperature Precipitation Wind Pressure Humidity
    00:00 +3°C° 0 mm 3 mps 664 mmHg 93%
    01:00 +3°C° 0 mm 3 mps 664 mmHg 93%
    02:00 +3°C° 0 mm 3 mps 664 mmHg 93%
    03:00 +4°C° 0 mm 2 mps 663 mmHg 93%
    04:00 +4°C° 0 mm 2 mps 663 mmHg 93%
    05:00 +3°C° 0 mm 2 mps 663 mmHg 93%
    06:00 +3°C° 0 mm 2 mps 663 mmHg 93%
    07:00 +4°C° 0 mm 2 mps 663 mmHg 88%
    08:00 +5°C° 0 mm 2 mps 664 mmHg 82%
    09:00 +6°C° 0 mm 2 mps 664 mmHg 76%
    10:00 +7°C° 0 mm 3 mps 664 mmHg 71%
    11:00 +7°C° 0 mm 4 mps 664 mmHg 66%
    12:00 +8°C° 0 mm 4 mps 664 mmHg 61%
    13:00 +8°C° 0 mm 4 mps 664 mmHg 63%
    14:00 +7°C° 0 mm 4 mps 664 mmHg 65%
    15:00 +7°C° 0 mm 4 mps 664 mmHg 67%
    16:00 +6°C° 0.4 mm 5 mps 664 mmHg 73%
    17:00 +3°C° 0.4 mm 7 mps 665 mmHg 79%
    18:00 +1°C° 0.4 mm 8 mps 665 mmHg 85%
    19:00 +2°C° 0.1 mm 7 mps 665 mmHg 85%
    20:00 +1°C° 0.1 mm 6 mps 666 mmHg 85%
    21:00 +1°C° 0.1 mm 5 mps 666 mmHg 85%
    22:00 +1°C° 0 mm 5 mps 667 mmHg 84%
    23:00 +1°C° 0 mm 4 mps 667 mmHg 83%

    22 January, Tuesday

    Time Temperature Precipitation Wind Pressure Humidity
    00:00 +1°C° 0 mm 4 mps 667 mmHg 82%
    01:00 +1°C° 0 mm 3 mps 667 mmHg 84%
    02:00 +1°C° 0 mm 3 mps 666 mmHg 85%
    03:00 +2°C° 0 mm 2 mps 666 mmHg 87%
    04:00 +1°C° 0 mm 2 mps 666 mmHg 89%
    05:00 +1°C° 0 mm 2 mps 666 mmHg 90%
    06:00 +1°C° 0 mm 2 mps 666 mmHg 92%
    07:00 +2°C° 0 mm 2 mps 667 mmHg 87%
    08:00 +2°C° 0 mm 2 mps 667 mmHg 83%
    09:00 +2°C° 0 mm 3 mps 667 mmHg 78%
    10:00 +3°C° 0 mm 3 mps 667 mmHg 74%
    11:00 +3°C° 0 mm 3 mps 667 mmHg 70%
    12:00 +3°C° 0 mm 3 mps 667 mmHg 66%
    13:00 +5°C° 0 mm 2 mps 667 mmHg 62%
    14:00 +5°C° 0 mm 2 mps 666 mmHg 58%
    15:00 +5°C° 0 mm 2 mps 666 mmHg 55%
    16:00 +5°C° 0 mm 1 mps 665 mmHg 59%
    17:00 +5°C° 0 mm 1 mps 665 mmHg 63%
    18:00 +4°C° 0 mm 1 mps 665 mmHg 67%
    19:00 +4°C° 0 mm 1 mps 665 mmHg 68%
    20:00 +2°C° 0 mm 2 mps 664 mmHg 70%
    21:00 +1°C° 0 mm 3 mps 664 mmHg 72%
    22:00 +1°C° 0 mm 3 mps 664 mmHg 75%
    23:00 +1°C° 0 mm 3 mps 663 mmHg 78%

    23 January, Wednesday

    Time Temperature Precipitation Wind Pressure Humidity
    00:00 -1°C° 0 mm 4 mps 662 mmHg 82%
    01:00 -1°C° 0 mm 4 mps 661 mmHg 80%
    02:00 -1°C° 0 mm 4 mps 660 mmHg 79%
    03:00 -1°C° 0 mm 4 mps 659 mmHg 77%
    04:00 -1°C° 0.3 mm 5 mps 659 mmHg 80%
    05:00 0°C° 0.3 mm 5 mps 658 mmHg 84%
    06:00 -1°C° 0.3 mm 6 mps 658 mmHg 87%
    07:00 -1°C° 0.5 mm 6 mps 658 mmHg 86%
    08:00 0°C° 0.5 mm 7 mps 658 mmHg 86%
    09:00 0°C° 0.5 mm 7 mps 657 mmHg 85%
    10:00 0°C° 0.6 mm 8 mps 657 mmHg 82%
    11:00 0°C° 0.6 mm 9 mps 657 mmHg 78%
    12:00 0°C° 0.6 mm 10 mps 657 mmHg 75%
    13:00 -1°C° 0.2 mm 11 mps 656 mmHg 71%
    14:00 -2°C° 0.2 mm 12 mps 656 mmHg 67%
    15:00 -2°C° 0.2 mm 13 mps 656 mmHg 64%
    16:00 -3°C° 0 mm 10 mps 655 mmHg 69%
    17:00 -2°C° 0 mm 8 mps 655 mmHg 74%
    18:00 -2°C° 0 mm 5 mps 654 mmHg 79%
    19:00 -2°C° 1.7 mm 4 mps 654 mmHg 84%
    20:00 -1°C° 1.7 mm 3 mps 654 mmHg 89%
    21:00 -1°C° 1.7 mm 2 mps 654 mmHg 94%
    22:00 -2°C° 0.4 mm 3 mps 654 mmHg 92%
    23:00 -3°C° 0.4 mm 4 mps 654 mmHg 91%

    24 January, Thursday

    Time Temperature Precipitation Wind Pressure Humidity
    00:00 -5°C° 0.4 mm 5 mps 654 mmHg 90%
    01:00 -5°C° 0 mm 5 mps 654 mmHg 89%
    02:00 -6°C° 0 mm 6 mps 654 mmHg 88%
    03:00 -8°C° 0 mm 7 mps 654 mmHg 87%
    04:00 -8°C° 0 mm 7 mps 654 mmHg 85%
    05:00 -8°C° 0 mm 7 mps 654 mmHg 83%
    06:00 -8°C° 0 mm 7 mps 654 mmHg 81%
    07:00 -8°C° 0 mm 7 mps 655 mmHg 80%
    08:00 -7°C° 0 mm 7 mps 655 mmHg 79%
    09:00 -6°C° 0 mm 7 mps 656 mmHg 77%
    10:00 -6°C° 0 mm 8 mps 656 mmHg 76%
    11:00 -5°C° 0 mm 8 mps 656 mmHg 75%
    12:00 -4°C° 0 mm 8 mps 656 mmHg 74%
    13:00 -4°C° 0 mm 8 mps 656 mmHg 74%
    14:00 -4°C° 0 mm 8 mps 656 mmHg 73%
    15:00 -4°C° 0 mm 9 mps 656 mmHg 72%
    16:00 -4°C° 0 mm 7 mps 657 mmHg 76%
    17:00 -4°C° 0 mm 5 mps 657 mmHg 80%
    18:00 -4°C° 0 mm 3 mps 657 mmHg 85%
    19:00 -5°C° 0 mm 3 mps 657 mmHg 84%
    20:00 -6°C° 0 mm 3 mps 657 mmHg 84%
    21:00 -6°C° 0 mm 3 mps 657 mmHg 84%
    22:00 -6°C° 0 mm 3 mps 658 mmHg 82%
    23:00 -6°C° 0 mm 3 mps 658 mmHg 80%
    Show more